Lanzarote, Spain

6:52 PM WEST on October 20, 2018 (GMT +0100)
Lanzarote

Weather History for GCRR - October, 2018

Change the Weather History Date:

Friday, October 12, 2018

  Actual Average Record
Temperature  
Mean Temperature 74 °F -  
Max Temperature 82 °F 75 °F 91 °F (2017)
Min Temperature 67 °F 64 °F 66 °F (1996)
Cooling Degree Days 10    
Growing Degree Days 24 (Base 50)    
Moisture  
Dew Point 66 °F    
Average Humidity 74    
Maximum Humidity 83    
Minimum Humidity 47    
Precipitation  
Precipitation 0.00 in 0.01 in - ()
Sea Level Pressure  
Sea Level Pressure 30.08 in    
Wind  
Wind Speed 7 mph ()    
Max Wind Speed 17 mph    
Max Gust Speed -    
Visibility 7.3 miles    
Events      
Averages and records for this station are not official NWS values.
T = Trace of Precipitation, MM = Missing Value Source: Averaged Metar Reports

Daily Weather History Graph

Daily Weather History Graph

Search for Another Location

Airport or City:

Astronomy

Oct. 12, 2018 Rise Set
Actual Time 7:53 AM WEST 7:27 PM WEST
Civil Twilight 7:29 AM WEST 7:51 PM WEST
Nautical Twilight 7:02 AM WEST 8:19 PM WEST
Astronomical Twilight 6:34 AM WEST 8:46 PM WEST
Moon 11:03 AM WEST (10/12) 10:08 PM WEST (10/12)
Length of Visible Light 12h 21m
Length of Day
11h 34m
Waxing Crescent, 13% of the Moon is Illuminated
Oct 12
Waxing Crescent
Oct 16
First Quarter
Oct 24
Full
Oct 31
Last Quarter
Nov 7
New

Hourly Weather History & Observations

Time (WEST) Temp. Dew Point Humidity Pressure Visibility Wind Dir Wind Speed Gust Speed Precip Events Conditions
12:00 AM 72 °F 65 °F 73% 30.11 in - NNW 8.1 mph - -  
12:00 AM 73.4 °F 66.2 °F 78% 30.09 in 6.2 mi NW 2.3 mph - N/A   Partly Cloudy
12:30 AM 73.4 °F 66.2 °F 78% 30.09 in 6.2 mi North 4.6 mph - N/A   Partly Cloudy
1:00 AM 70 °F 65 °F 80% 30.11 in 19 mi Calm Calm - -   Scattered Clouds
1:00 AM 71.6 °F 66.2 °F 83% 30.09 in 6.2 mi North 5.8 mph - N/A   Partly Cloudy
1:30 AM 71.6 °F 66.2 °F 83% 30.09 in 6.2 mi NE 5.8 mph - N/A   Unknown
2:00 AM 70 °F 65 °F 78% 30.11 in - NNW 5.8 mph - -  
2:00 AM 71.6 °F 66.2 °F 83% 30.09 in 6.2 mi North 5.8 mph - N/A   Unknown
2:30 AM 71.6 °F 66.2 °F 83% 30.09 in 6.2 mi NNW 5.8 mph - N/A   Unknown
3:00 AM 69 °F 64 °F 80% 30.10 in - NNW 6.9 mph - -  
3:00 AM 71.6 °F 64.4 °F 78% 30.09 in 6.2 mi NNW 5.8 mph - N/A   Unknown
4:00 AM 69 °F 64 °F 80% 30.08 in - NNW 8.1 mph - -  
4:00 AM 69.8 °F 64.4 °F 83% 30.06 in 6.2 mi North 5.8 mph - N/A   Unknown
4:30 AM 69.8 °F 64.4 °F 83% 30.06 in 6.2 mi North 5.8 mph - N/A   Unknown
5:00 AM 68 °F 64 °F 82% 30.07 in - North 8.1 mph - -  
5:00 AM 69.8 °F 64.4 °F 83% 30.06 in 6.2 mi North 8.1 mph - N/A   Unknown
5:30 AM 69.8 °F 64.4 °F 83% 30.06 in 6.2 mi North 6.9 mph - N/A   Unknown
6:00 AM 68 °F 63 °F 78% 30.08 in - NNW 8.1 mph - -  
6:00 AM 69.8 °F 62.6 °F 78% 30.06 in 6.2 mi North 8.1 mph - N/A   Partly Cloudy
7:00 AM 68 °F 63 °F 78% 30.09 in 19 mi NNW 8.1 mph - -   Scattered Clouds
7:00 AM 69.8 °F 62.6 °F 78% 30.06 in 6.2 mi North 5.8 mph - N/A   Partly Cloudy
7:30 AM 69.8 °F 64.4 °F 83% 30.09 in 6.2 mi North 8.1 mph - N/A   Partly Cloudy
8:00 AM 68 °F 63 °F 79% 30.10 in - NNW 8.1 mph - -  
8:00 AM 69.8 °F 64.4 °F 83% 30.09 in 6.2 mi North 6.9 mph - N/A   Partly Cloudy
8:30 AM 69.8 °F 64.4 °F 83% 30.09 in 6.2 mi NNW 6.9 mph - N/A   Partly Cloudy
9:00 AM 72 °F 64 °F 71% 30.12 in - NNW 5.8 mph - -  
9:00 AM 71.6 °F 64.4 °F 78% 30.09 in 6.2 mi NNW 5.8 mph - N/A   Partly Cloudy
9:30 AM 75.2 °F 64.4 °F 69% 30.12 in 6.2 mi NNE 6.9 mph - N/A   Partly Cloudy
10:00 AM 76 °F 65 °F 60% 30.13 in 22 mi North 9.2 mph - -   Scattered Clouds
10:00 AM 77.0 °F 64.4 °F 65% 30.12 in 6.2 mi NNE 10.4 mph - N/A   Partly Cloudy
10:30 AM 77.0 °F 66.2 °F 69% 30.12 in 6.2 mi NNE 6.9 mph - N/A   Scattered Clouds
11:00 AM 80 °F 64 °F 49% 30.13 in - NE 10.4 mph - -  
11:00 AM 78.8 °F 68.0 °F 69% 30.12 in 6.2 mi ENE 10.4 mph - N/A   Scattered Clouds
11:30 AM 75.2 °F 68.0 °F 78% 30.12 in 6.2 mi ENE 12.7 mph - N/A   Partly Cloudy
12:00 PM 79 °F 65 °F 55% 30.12 in - East 13.8 mph - -  
12:00 PM 75.2 °F 68.0 °F 78% 30.12 in 6.2 mi East 17.3 mph - N/A   Partly Cloudy
12:30 PM 75.2 °F 68.0 °F 78% 30.12 in 6.2 mi East 16.1 mph - N/A   Partly Cloudy
1:00 PM 78 °F 67 °F 60% 30.11 in 22 mi East 13.8 mph - -   Scattered Clouds
1:00 PM 75.2 °F 68.0 °F 78% 30.09 in 6.2 mi East 16.1 mph - N/A   Partly Cloudy
1:30 PM 75.2 °F 68.0 °F 78% 30.09 in 6.2 mi East 13.8 mph - N/A   Partly Cloudy
2:00 PM 79 °F 67 °F 60% 30.09 in - East 12.7 mph - -  
2:00 PM 75.2 °F 68.0 °F 78% 30.09 in 6.2 mi East 12.7 mph - N/A   Partly Cloudy
3:00 PM 79 °F 68 °F 60% 30.06 in - East 12.7 mph - -  
3:00 PM 75.2 °F 69.8 °F 83% 30.06 in 6.2 mi East 11.5 mph - N/A   Partly Cloudy
3:30 PM 77.0 °F 69.8 °F 78% 30.06 in 6.2 mi East 11.5 mph - N/A   Partly Cloudy
4:00 PM 78 °F 67 °F 62% 30.06 in 22 mi East 10.4 mph - -   Scattered Clouds
4:00 PM 75.2 °F 68.0 °F 78% 30.06 in 6.2 mi East 10.4 mph - N/A   Partly Cloudy
4:30 PM 75.2 °F 69.8 °F 83% 30.04 in 6.2 mi East 12.7 mph - N/A   Partly Cloudy
5:00 PM 78 °F 66 °F 59% 30.05 in - East 13.8 mph - -  
5:00 PM 75.2 °F 69.8 °F 83% 30.04 in 6.2 mi East 16.1 mph - N/A   Partly Cloudy
5:30 PM 75.2 °F 69.8 °F 83% 30.04 in 6.2 mi East 16.1 mph - N/A   Partly Cloudy
6:00 PM 82 °F 65 °F 47% 30.05 in - North 10.4 mph - -  
6:30 PM 78.8 °F 66.2 °F 65% 30.04 in 6.2 mi West 9.2 mph - N/A   Partly Cloudy
7:00 PM 78 °F 67 °F 62% 30.06 in 19 mi West 9.2 mph - -   Scattered Clouds
7:00 PM 78.8 °F 68.0 °F 69% 30.04 in 6.2 mi West 8.1 mph - N/A   Partly Cloudy
8:00 PM 75 °F 66 °F 67% 30.06 in - NNW 11.5 mph - -  
8:00 PM 77.0 °F 66.2 °F 69% 30.04 in 6.2 mi North 9.2 mph - N/A   Scattered Clouds
8:30 PM 75.2 °F 66.2 °F 73% 30.06 in 6.2 mi Variable 8.1 mph - N/A   Partly Cloudy
9:00 PM 74 °F 66 °F 70% 30.07 in - North 8.1 mph - -  
9:00 PM 75.2 °F 66.2 °F 73% 30.06 in 6.2 mi North 8.1 mph - N/A   Partly Cloudy
9:30 PM 73.4 °F 66.2 °F 78% 30.06 in 6.2 mi NNE 6.9 mph - N/A   Partly Cloudy
10:00 PM 73 °F 66 °F 73% 30.09 in 19 mi NNW 8.1 mph - -   Scattered Clouds
10:00 PM 73.4 °F 66.2 °F 78% 30.06 in 6.2 mi North 5.8 mph - N/A   Partly Cloudy
10:30 PM 73.4 °F 66.2 °F 78% 30.06 in 6.2 mi North 6.9 mph - N/A   Partly Cloudy
11:00 PM 72 °F 66 °F 76% 30.08 in - NNW 8.1 mph - -  
11:00 PM 73.4 °F 66.2 °F 78% 30.06 in 6.2 mi NNW 6.9 mph - N/A   Partly Cloudy
11:30 PM 73.4 °F 66.2 °F 78% 30.06 in 6.2 mi NNW 8.1 mph - N/A   Partly Cloudy